Flag for United Kingdom Weather past 2 weeks in Swansea, Wales, United Kingdom

Now
52 °F

Cool.


Feels Like: 47 °F
Forecast: 45 / 56 °F
Wind: 16 mph from West

Location: Mumbles

Current Time: May 29, 2015 at 9:43:11 PM

Latest Report: May 29, 2015 at 9:00 PM


Visibility: N/A

Pressure: 29.88 "Hg

Humidity: 73%

Dew point: 44 °F

Location of SwanseaLocation

Historic Weather in Swansea — Graph

°F

Swansea temperature yesterday

Maximum temperature yesterday: 56 °F (at 12:00 PM)
Minimum temperature yesterday: 49 °F (at 6:00 AM)
Average temperature yesterday: 53 °F

Past Weeks' High & Low Weather Summary

 TemperatureHumidityPressure
High64 °F (May 23, 1:00 PM)100% (May 22, 10:00 AM)30.42 "Hg (May 22, 10:00 AM)
Low44 °F (May 20, 5:00 AM)43% (May 20, 2:00 PM)29.56 "Hg (May 18, 10:00 AM)
Average53 °F78%30.14 "Hg
* Reported May 14 8:00 PM — May 29 8:00 PM, Swansea, Weather by CustomWeather, © 2015

Note: Actual official high and low records may vary slightly from our data, if they occured in-between our weather recording intervals... More about our weather records

Advertising

Swansea weather history for previous 24 hours

 ConditionsComfort  
Time TempWeatherWind HumidityBarometerVisibility
8:00 PM
Fri, May 29
53 °FCool.21 mph69%29.87 "HgN/A
7:00 PM54 °FCool.22 mph67%29.85 "HgN/A
6:00 PM53 °FCool.17 mph72%29.84 "HgN/A
5:00 PM55 °FCool.13 mph55%29.83 "HgN/A
4:00 PM56 °FRefreshingly cool.14 mph51%29.82 "HgN/A
3:00 PM53 °FCool.16 mph60%29.81 "HgN/A
2:00 PM54 °FCool.15 mph58%29.80 "HgN/A
1:00 PM52 °FCool.18 mph65%29.78 "HgN/A
12:00 PM53 °FCool.13 mph74%29.77 "HgN/A
11:00 AM52 °FCool.13 mph85%29.75 "HgN/A
10:00 AM49 °FCool.9 mph89%29.74 "HgN/A
9:00 AM47 °FCool.20 mph93%29.73 "HgN/A
8:00 AM53 °FCool.41 mph94%29.70 "HgN/A
7:00 AM52 °FCool.36 mph94%29.73 "HgN/A
6:00 AM52 °FCool.30 mph90%29.78 "HgN/A
5:00 AM52 °FCool.25 mph83%29.82 "HgN/A
4:00 AM52 °FCool.23 mph78%29.86 "HgN/A
3:00 AM52 °FCool.24 mph76%29.88 "HgN/A
2:00 AM52 °FCool.22 mph78%29.91 "HgN/A
1:00 AM53 °FCool.23 mph80%29.93 "HgN/A
12:00 AM53 °FCool.22 mph80%29.96 "HgN/A
9:00 PM
Thu, May 28
53 °FCool.22 mph75%29.99 "HgN/A
Weather by CustomWeather, © 2015

See weather overviewHow to use our weather pages